Temp_Advection
nan nan nan nan nan nan nan nan nan nan nan nan nan nan nan nan nan nan nan nan nan nan nan nan nan nan nan nan nan nan nan nan nan nan nan nan nan nan nan nan nan nan nan nan nan nan nan nan nan nan nan nan nan nan nan nan nan nan nan nan nan nan nan nan nan nan nan nan nan
nan 0 0 0 0 0 0 0 0 0 1 1 1 2 1 1 0 0 0 0 1 1 0 0 0 1 1 1 -0 -0 0 1 1 -0 -1 -2 -1 -0 0 -0 1 4 4 -0 -4 -3 1 4 3 1 -0 0 1 0 0 0 0 1 1 0 1 1 1 0 0 0 0 1 nan
nan -0 -0 -0 0 0 0 -0 -0 0 1 1 1 1 1 1 -0 -0 -0 1 1 1 0 0 1 1 1 1 -0 -1 -0 0 0 -0 -1 -2 -1 1 0 0 1 2 0 -3 -2 2 3 2 1 -0 -0 0 1 1 0 0 0 0 0 0 0 1 1 1 0 -0 0 1 nan
nan -0 -0 -0 -0 -0 -0 -0 -0 0 1 1 1 1 1 0 -0 -1 -0 1 1 1 1 1 1 1 1 0 -0 -1 -1 0 1 -0 -1 -1 -1 0 -0 -1 -1 -1 -1 1 3 4 3 1 -0 -0 -0 -0 0 0 1 1 1 0 0 0 0 1 1 1 1 0 -0 0 nan
nan -0 -0 -0 -0 -0 -0 -0 -0 -0 0 1 1 1 1 1 0 -1 -1 0 1 2 2 1 1 1 1 -0 -0 -1 -1 0 1 0 -0 -1 -1 -1 -1 -1 -1 -1 -0 2 3 3 2 0 -0 -0 -0 0 0 -0 -0 0 1 1 1 1 1 1 1 1 0 0 -0 0 nan
nan -0 -0 -0 -0 -0 -0 -0 -0 -0 0 0 1 1 1 1 1 1 0 -0 -0 1 1 0 1 1 1 0 0 0 0 0 1 -0 -1 -0 -0 -0 -1 -1 -1 -1 0 1 2 1 1 0 -0 0 1 1 1 0 -1 -0 1 2 2 1 1 1 1 0 0 -0 -0 -0 nan
nan -0 -0 -0 -0 -0 -0 -0 -0 -0 -0 -0 -0 0 1 1 2 1 1 0 0 0 -1 -0 1 1 1 1 1 0 0 1 1 0 -0 -1 -1 -1 -1 -1 -1 -0 -0 0 0 0 0 0 1 1 2 2 1 0 -0 0 1 2 2 2 1 1 1 0 -0 -0 -0 -0 nan
nan -0 -0 -0 -0 -0 -0 -0 -0 -0 -0 -0 -0 -0 0 1 2 2 1 1 0 -0 -1 -0 1 1 1 1 1 0 0 0 0 -0 -0 -1 -1 -1 -1 -0 -0 -0 -0 -0 -0 -0 0 0 0 1 1 2 1 -0 0 1 2 2 2 1 1 1 1 -0 -0 -1 -0 0 nan
nan -0 -0 -0 -0 -0 -0 -0 -0 -0 -0 -0 -0 -0 -0 1 2 2 1 1 1 0 -0 -1 -0 1 1 1 0 0 0 0 0 -0 -0 -1 -1 -1 -1 -0 -0 -0 -0 -0 -0 -0 -0 -0 0 1 1 1 0 0 1 2 2 2 1 1 1 1 0 -0 -0 -0 0 1 nan
nan -0 -0 -0 -0 -0 -0 -0 -0 -0 -0 -0 -0 -0 -0 0 1 1 1 1 1 0 -0 -1 0 1 1 0 0 0 0 0 0 0 -0 -0 -1 -1 -0 -0 -0 -1 -1 -1 -1 -1 -0 -0 0 1 1 1 0 1 1 2 2 1 1 1 1 0 0 0 0 0 1 1 nan
nan -0 -0 -0 -0 -0 -1 -0 -0 -0 -0 -0 -0 -0 -0 -0 -0 0 1 2 2 0 -0 0 1 1 0 -0 -0 -0 -0 0 1 1 0 0 -0 -0 -0 -0 -0 -0 -0 -0 -1 -1 -0 -0 0 0 0 1 1 1 2 2 1 1 1 1 1 1 0 0 0 1 1 1 nan
nan -1 -1 -0 -0 -0 -1 -1 -1 -1 -1 -1 -0 -0 0 -0 -0 -1 -0 1 2 2 2 1 1 -0 -0 -1 -0 -0 -0 0 1 1 1 1 0 -0 -0 -0 -0 -0 -0 -0 -0 -0 -0 -0 0 0 1 1 1 1 1 1 1 1 1 1 1 1 1 0 0 1 1 1 nan
nan -1 -1 -1 -0 -0 -0 -1 -1 -1 -1 -1 -1 -0 0 0 0 -0 -1 -0 1 2 2 2 1 -0 -1 -0 -0 -0 -0 -0 0 1 1 1 0 0 0 -0 -0 -0 -0 -0 -0 -0 0 0 1 1 1 1 1 1 0 -0 0 1 1 1 1 1 1 0 0 1 1 1 nan
nan -1 -1 -1 -0 -0 -0 -0 -0 -0 -0 -1 -1 -1 -0 0 0 0 0 -0 0 1 1 1 1 -0 -1 -1 -0 -0 -0 0 0 0 1 1 0 0 -0 -0 -0 -0 -0 -0 -0 0 0 1 2 2 1 1 1 0 0 0 0 1 1 1 1 1 1 0 0 1 1 1 nan
nan -0 -0 -0 -0 -0 -0 -0 -0 -0 -0 -0 -1 -1 -0 -0 -0 0 0 0 0 1 1 1 1 0 -0 -1 -1 -1 -0 0 1 1 1 1 0 -0 -0 -0 0 0 0 -0 0 1 1 2 2 1 1 0 0 1 1 1 1 0 -0 0 0 1 1 1 1 1 2 2 nan
nan -0 -0 -0 -0 -0 -0 -0 -0 -0 0 -0 -0 -0 -0 -0 -0 -0 -0 -0 0 0 1 1 1 1 1 1 0 -0 -1 -1 0 0 1 1 0 0 -0 0 0 0 0 0 0 1 2 1 1 1 1 0 0 1 1 1 1 -0 -0 -0 1 1 1 1 2 2 3 3 nan
nan -0 -0 -0 -0 -0 -0 -0 -1 -0 -0 0 0 -0 -0 -0 -0 -0 -0 -0 -0 -0 0 0 -0 -0 0 1 2 1 -1 -1 -1 0 0 0 1 0 0 0 0 0 0 1 1 2 1 1 1 1 1 1 1 1 0 0 -0 0 0 1 1 2 2 2 2 3 3 3 nan
nan -0 -0 -1 -1 -1 -1 -1 -1 -0 -0 0 -0 -0 -0 -0 -0 -0 -0 -0 -0 0 -0 -0 -0 -0 -0 1 1 1 -0 -1 -0 -0 0 0 0 0 0 0 0 0 1 2 2 2 1 1 0 1 1 1 1 1 -0 -1 -0 1 2 2 2 2 2 2 2 3 3 2 nan
nan -0 -0 -1 -1 -1 -1 -1 -0 -0 -0 -0 -0 -0 -0 -0 -0 -0 -0 -0 -0 -0 -0 -0 -0 -0 -0 0 0 0 -0 -0 -0 0 1 1 0 0 0 0 0 1 1 2 2 1 1 0 1 1 1 1 1 0 -0 -0 1 2 3 2 2 1 2 2 2 2 1 1 nan
nan -0 -0 -0 -1 -1 -1 -1 -1 -0 -0 -0 -0 -0 -0 -0 -0 -0 -0 -0 -0 -0 -0 0 -0 -0 -1 -0 -0 -0 -0 -0 0 1 1 1 1 1 1 1 1 1 1 1 1 1 1 1 1 1 1 1 0 0 0 1 1 2 2 1 1 1 1 2 1 1 0 0 nan
nan -0 -0 -0 -0 -0 -1 -1 -1 -0 -0 -0 -0 -0 -0 -0 -0 -0 -0 -0 -1 -1 -0 0 1 0 -0 -1 -1 -0 -0 0 1 1 1 1 2 2 2 1 1 0 0 0 0 0 0 1 1 1 1 1 1 1 1 1 1 1 1 1 1 1 1 1 1 0 0 0 nan
nan -0 -0 -0 -0 -0 -0 -0 -0 -0 -0 -0 -0 -0 -0 -0 -0 -0 -0 -0 -0 -1 -1 0 1 1 -0 -1 -1 -1 -0 0 1 1 1 2 2 1 1 1 0 0 0 0 0 0 0 0 1 0 0 0 1 1 1 1 1 1 1 1 1 1 1 1 0 0 0 0 nan
nan -0 -0 -0 -0 -0 -0 -0 -0 -0 -0 -0 -0 -0 -0 -0 -0 -0 -0 -0 -0 -0 -1 -0 0 1 -0 -1 -1 -0 0 0 1 1 1 1 1 1 0 1 1 1 0 0 0 0 0 0 0 0 0 0 0 1 1 1 1 1 1 1 1 1 1 1 0 0 0 0 nan
nan -0 -0 -0 -0 -0 -0 -0 -0 -1 -1 -0 -0 -0 -0 -0 -0 -0 -0 -0 -0 -0 -0 -0 -0 0 0 0 0 0 0 0 0 0 0 0 0 0 1 1 1 1 1 0 -0 -0 -0 0 0 0 0 0 0 0 1 1 1 1 1 1 1 1 1 1 0 0 0 0 nan
nan -0 -0 -0 -0 -0 -0 -0 -1 -1 -1 -1 -1 -1 -1 -1 -1 -1 -1 -1 -1 -0 -0 -0 -0 -0 -0 -0 -0 -0 0 0 0 0 0 -0 -0 0 0 0 1 1 1 1 0 0 -0 -0 -0 -0 0 0 0 1 1 1 1 0 1 1 1 1 1 0 0 0 0 0 nan
nan -0 -1 -1 -0 -0 -0 -1 -1 -1 -1 -1 -1 -1 -1 -2 -1 -1 -1 -1 -1 -1 -1 -1 -1 -1 -1 -1 -0 -0 0 0 0 -0 -0 -0 -0 -0 0 0 0 0 1 1 0 0 0 -0 -0 0 0 0 0 0 0 0 0 0 1 1 1 0 0 0 0 0 0 0 nan
nan -1 -1 -0 -0 -0 -1 -0 -1 -1 -1 -1 -1 -1 -1 -1 -1 -2 -2 -2 -2 -1 -1 -1 -1 -1 -1 -0 -0 -0 0 0 -0 -0 -0 -0 -0 -0 0 0 0 0 1 1 0 0 0 0 0 0 0 0 0 0 0 0 0 0 0 0 0 0 0 0 0 0 0 0 nan
nan -1 -1 -0 -1 -1 -1 -0 -0 -0 -0 -1 -1 -1 -1 -1 -1 -1 -1 -1 -1 -1 -1 -1 -1 -0 -0 -0 -0 -0 -0 -0 -0 -0 -0 -0 0 0 0 0 0 0 0 0 0 0 0 0 0 0 0 0 0 0 0 0 0 0 0 0 0 0 0 0 0 0 0 0 nan
nan -0 -0 -1 -1 -1 -1 -0 -0 -0 -0 -0 -1 -1 -1 -1 -1 -1 -1 -1 -1 -1 -1 -0 -0 -0 -0 -0 -0 -0 -0 0 0 0 0 0 0 0 0 0 0 0 0 0 0 0 0 0 0 0 0 0 0 0 0 0 0 0 0 0 0 0 0 0 0 0 0 0 nan
nan -0 -0 -1 -1 -1 -0 -0 -0 -0 -0 -0 -0 -0 -0 -0 -0 -0 -0 -0 -0 -0 -0 -0 -0 -0 -0 -0 -0 -0 -0 -0 -0 0 0 0 0 0 0 0 0 0 0 0 0 0 0 0 0 0 0 0 0 0 0 0 0 0 0 0 0 0 0 0 0 0 0 0 nan
nan -0 -1 -1 -0 -0 -0 -0 -0 -0 -0 -0 -0 -0 -0 -0 -0 -0 -0 -0 -0 -0 -0 -0 -0 -0 -0 -0 -0 -0 -0 -0 -0 -0 0 0 0 0 0 0 0 1 1 0 0 0 0 0 0 0 0 0 0 0 0 0 0 0 0 0 0 0 0 0 0 0 0 0 nan
nan -0 -0 -0 -0 -0 -0 -0 -0 -0 -0 -0 -0 -0 -0 -0 -0 -0 -0 -0 -0 -0 -0 -0 -0 -0 -0 -0 -0 -0 -0 -0 -0 -0 0 0 0 0 0 0 0 0 0 0 0 0 0 0 0 0 0 0 0 0 0 0 0 0 0 0 0 0 0 0 0 0 0 0 nan
nan -0 -0 -0 -0 -0 -0 -0 -0 -0 -0 -0 -0 -0 -0 -0 -0 -0 -0 -0 -0 -0 -0 -0 -0 -0 -0 -0 -0 -0 -0 -0 -0 0 0 0 -0 -0 -0 -0 -0 0 0 0 0 0 0 0 0 0 0 0 0 0 0 0 0 0 0 0 0 0 0 0 0 0 0 0 nan
nan -0 -0 -0 -0 -0 -0 -0 -0 -0 -0 -0 -0 -0 -0 -0 -0 -0 -0 -0 -0 -0 -0 -0 -0 -0 -0 -0 -0 -0 -0 -0 0 0 0 0 -0 -0 -0 -0 -0 0 0 0 0 0 0 0 0 0 0 0 0 0 0 0 0 0 0 0 0 0 0 0 0 0 0 0 nan
nan -0 -0 -0 -0 -0 -0 -0 -0 -0 -0 -0 -0 -0 -0 -0 -0 -0 -0 -0 -0 -0 -0 -0 -0 -0 -0 -0 -0 -0 -0 -0 -0 0 0 0 0 -0 -0 -0 -0 0 0 0 0 0 0 0 0 0 0 0 0 0 0 0 0 0 0 0 -0 -0 -0 -0 -0 -0 0 0 nan
nan -0 -0 -0 -0 -0 -0 -0 -0 -0 -0 -0 -0 -0 -0 -0 -0 -0 0 0 -0 -0 -0 -0 0 -0 -0 -0 -0 -0 -0 -0 -0 0 0 0 0 0 -0 -0 -0 0 0 0 0 0 0 0 0 0 0 0 0 0 0 0 0 0 -0 -0 -0 -0 -0 -0 -0 -0 -0 0 nan
nan -0 -0 -0 -0 -0 -0 -0 0 0 -0 -0 -0 -0 -0 -0 -0 -0 0 0 0 -0 -0 -0 0 -0 -0 -0 -0 -0 -0 -0 -0 -0 0 0 0 0 -0 -0 -0 -0 0 0 0 0 0 0 0 0 0 0 0 0 0 -0 -0 -0 -0 -0 -0 -0 -0 -0 -0 -0 -0 0 nan
nan -0 -0 -0 -0 -0 -0 0 0 0 0 0 -0 -0 -0 -0 -0 -0 0 0 0 -0 -0 -0 -0 -0 -0 -0 -0 -0 -0 0 0 0 0 0 0 0 0 -0 -0 0 0 0 0 0 0 0 -0 -0 -0 -0 -0 -0 -0 -0 0 0 -0 -0 -0 -0 -0 -0 -0 -0 -0 -0 nan
nan -0 -0 -0 0 -0 0 0 0 0 0 0 0 0 0 -0 -0 -0 0 0 0 -0 -0 -0 -0 -0 -0 0 0 0 0 0 0 0 0 0 0 0 0 0 0 0 0 0 0 0 -0 -0 -0 -0 -0 -0 -0 0 0 0 -0 -0 -0 -0 -0 -0 -0 -0 -0 -0 -0 -0 nan
nan -0 -0 -0 0 0 0 0 0 0 0 0 0 0 0 -0 -0 -0 -0 0 0 -0 -0 -0 -0 -0 -0 0 0 0 -0 -0 0 0 0 0 0 0 0 0 0 0 -0 -0 -0 -0 -0 -0 -0 0 0 0 0 0 -0 -0 -0 -0 -0 -0 -0 -0 -0 -0 -0 -0 -0 -0 nan
nan nan nan nan nan nan nan nan nan nan nan nan nan nan nan nan nan nan nan nan nan nan nan nan nan nan nan nan nan nan nan nan nan nan nan nan nan nan nan nan nan nan nan nan nan nan nan nan nan nan nan nan nan nan nan nan nan nan nan nan nan nan nan nan nan nan nan nan nan
Wind_Speed
22 22 23 24 24 25 26 26 26 27 26 26 25 25 24 24 24 24 25 25 25 25 25 25 26 27 29 31 33 34 36 36 37 37 37 38 38 39 40 41 42 42 42 40 38 38 38 37 34 30 28 28 29 29 30 32 35 38 40 41 41 42 43 45 47 48 49 48 48
19 20 21 22 22 23 24 25 25 26 27 27 27 26 25 24 24 24 24 24 25 25 25 25 25 26 28 30 32 34 35 35 35 36 36 38 39 40 40 41 42 40 38 36 37 38 38 36 32 28 26 27 28 30 32 33 34 36 38 38 38 39 39 41 43 45 47 49 51
14 16 17 18 18 19 20 21 22 23 24 25 26 26 25 24 25 25 26 26 25 24 25 26 26 27 28 29 31 32 33 33 34 34 35 37 38 38 39 39 39 38 37 37 38 39 37 34 31 28 26 26 27 30 32 33 34 36 37 37 37 37 37 38 39 41 44 47 51
11 12 13 13 14 15 16 17 18 19 20 21 23 23 24 25 26 26 27 26 26 26 26 26 26 27 27 29 30 31 31 31 31 32 33 34 35 35 36 36 36 37 37 38 38 37 34 32 31 30 29 28 29 30 32 33 33 35 36 37 37 36 36 36 37 38 41 44 48
9 10 11 11 12 13 14 15 16 17 18 19 20 21 22 23 23 25 26 26 26 26 25 25 26 26 26 27 29 30 30 30 30 31 31 31 31 32 33 33 33 34 35 36 35 34 32 31 31 31 31 30 31 32 33 33 34 35 36 36 37 37 36 35 35 35 37 40 43
10 11 11 12 12 13 13 14 15 16 16 17 18 20 21 22 23 23 24 24 25 25 25 26 26 26 26 26 27 29 29 29 29 29 29 30 29 29 29 30 31 32 33 32 31 31 30 31 31 31 31 32 32 32 33 33 35 35 35 35 36 36 35 34 33 33 33 35 37
12 12 13 13 13 13 14 14 15 16 16 17 18 19 20 22 22 22 22 22 22 24 25 26 26 25 25 25 25 26 27 28 28 28 28 28 28 28 29 29 30 30 30 30 29 29 29 30 30 31 32 33 33 32 33 33 34 34 33 33 33 33 33 31 31 30 31 32 35
14 14 14 14 14 15 15 15 16 16 17 18 18 19 20 21 21 20 20 21 22 24 26 27 26 25 24 24 24 24 25 26 27 28 28 28 29 29 30 30 30 29 29 29 29 29 29 29 31 32 33 34 33 32 32 33 33 32 31 31 30 30 29 29 29 29 30 32 35
17 17 17 17 17 17 17 17 17 17 17 18 18 19 20 21 21 20 20 20 22 24 26 27 26 25 24 23 24 24 24 25 26 26 27 27 28 29 29 28 28 28 28 28 29 29 29 29 31 32 33 33 33 32 31 32 32 31 29 28 28 28 28 28 29 30 31 34 38
20 20 20 20 21 21 21 21 20 20 19 19 18 19 20 21 22 22 21 21 22 24 25 26 25 24 23 23 24 25 26 26 25 25 25 25 26 26 26 26 26 26 26 27 27 28 29 31 32 33 33 32 31 31 31 30 30 28 27 27 27 28 29 29 30 31 34 36 40
21 22 23 23 24 24 24 24 24 24 23 22 21 20 20 21 22 23 23 24 23 23 23 23 22 22 23 24 25 26 27 27 26 25 24 24 24 24 23 23 23 23 23 24 25 27 29 31 32 32 31 30 30 30 30 29 28 26 26 26 27 28 29 30 31 33 36 38 41
22 23 23 24 24 25 25 25 25 25 25 24 23 22 22 21 21 22 23 24 24 22 20 19 19 21 22 24 25 26 27 27 26 25 23 22 22 22 22 21 21 20 20 20 22 25 27 29 30 30 30 30 29 28 28 27 27 26 25 26 27 28 29 31 32 34 37 39 41
21 22 23 23 24 24 23 23 24 24 24 24 24 23 23 22 22 22 21 22 22 20 18 17 17 19 21 23 24 26 27 27 26 24 23 22 21 21 20 20 19 19 19 19 21 24 26 28 29 29 28 27 27 26 25 25 25 25 24 25 26 28 30 32 33 35 37 39 40
20 21 21 22 23 23 23 22 22 22 22 22 22 22 23 22 22 21 20 20 19 18 16 15 15 17 19 21 23 25 26 26 25 24 23 22 21 21 21 20 20 20 20 21 22 24 26 28 28 28 26 25 24 23 23 23 23 24 24 25 26 28 30 32 34 36 37 38 38
18 19 20 20 21 22 22 22 23 22 22 22 22 21 21 21 22 22 21 20 18 16 15 14 13 14 17 20 23 25 25 26 25 25 24 23 22 22 22 22 21 21 21 21 23 24 26 27 26 25 24 23 22 21 21 22 23 23 24 24 26 28 30 32 34 36 36 37 36
18 18 19 19 20 20 21 22 23 23 23 23 22 21 20 20 21 22 22 22 20 17 15 14 13 14 15 18 21 23 25 27 27 26 25 23 23 22 22 22 22 22 22 23 24 25 26 25 24 23 22 21 21 20 21 21 22 23 24 25 27 29 31 32 34 34 35 34 33
19 19 19 19 20 20 21 21 22 23 23 23 22 20 18 18 18 19 19 19 18 17 15 14 14 14 15 17 19 22 25 27 28 27 26 25 24 23 23 23 22 22 23 24 26 26 25 23 22 22 21 21 20 20 20 21 21 23 24 26 28 29 30 31 32 32 31 31 29
19 19 18 18 19 20 20 21 22 22 22 21 19 17 15 15 15 14 14 14 13 12 12 12 13 14 14 15 18 21 24 27 28 28 27 27 26 25 24 24 24 24 25 26 26 25 23 22 21 21 20 20 20 20 21 21 22 24 25 27 28 28 28 28 28 28 27 25 23
17 17 16 17 17 18 19 19 19 19 18 17 15 14 13 13 12 11 11 10 10 9 9 9 10 11 12 13 16 20 24 26 27 27 27 27 27 27 27 27 27 26 26 26 25 23 22 21 20 20 20 20 20 21 21 22 22 24 25 25 25 25 25 24 24 23 21 20 18
14 13 14 14 15 15 15 16 17 16 15 13 11 11 11 11 11 11 10 10 10 10 10 10 10 11 12 13 16 20 23 25 27 27 27 27 27 27 28 28 27 26 25 24 22 21 20 19 19 19 19 19 20 20 21 21 22 23 23 22 22 22 21 21 20 18 17 15 14
10 10 10 11 11 11 11 12 13 13 13 10 8 8 9 10 10 11 11 12 13 14 15 15 14 14 15 16 17 20 22 24 26 27 27 26 26 26 26 25 25 24 23 21 20 19 18 18 18 18 18 18 19 19 19 20 20 20 20 19 19 18 18 17 16 15 14 13 13
8 7 7 7 7 7 8 8 9 9 8 7 6 7 8 9 9 10 11 12 14 15 17 19 20 19 18 18 19 21 23 25 26 27 26 25 24 24 23 23 22 21 20 19 18 17 17 17 17 17 17 17 17 17 17 17 17 17 17 17 16 15 15 14 14 13 13 13 13
5 4 3 3 4 5 6 7 7 8 7 6 6 6 7 8 9 9 10 10 11 12 14 16 18 18 18 19 21 23 24 26 26 26 25 23 22 21 21 21 20 19 18 17 16 15 15 15 15 15 15 15 15 14 14 14 14 14 14 14 14 13 13 13 13 13 13 13 13
1 1 2 3 4 5 6 7 8 9 9 9 8 8 8 9 9 9 9 9 9 9 10 12 13 15 17 18 20 22 23 24 24 23 22 21 20 19 18 17 17 16 16 15 14 14 13 13 13 13 12 12 12 12 12 12 12 12 12 12 12 12 13 13 13 13 13 13 12
2 3 4 6 7 7 8 8 9 11 11 12 12 12 12 12 12 12 11 11 11 11 11 12 13 14 15 17 18 20 21 21 20 19 18 16 15 14 13 13 13 13 13 13 12 11 11 10 9 9 9 10 10 9 9 9 9 9 10 10 11 12 12 13 13 12 12 11 11
5 6 7 8 9 9 10 11 11 12 13 13 14 14 14 14 14 14 13 13 13 14 15 15 15 15 15 15 16 17 17 16 14 13 11 10 9 9 9 9 9 10 10 10 10 8 7 6 5 5 5 6 6 7 7 8 8 9 9 10 11 11 12 12 12 11 11 10 10
7 8 9 10 10 10 10 11 12 13 13 14 14 13 13 13 13 13 12 12 13 13 14 14 14 13 12 12 12 12 11 10 8 7 6 6 6 6 6 6 7 7 7 7 6 5 3 2 2 2 3 3 5 6 7 8 9 10 10 11 11 11 11 11 10 10 9 9 9
8 9 10 10 10 10 10 11 11 12 12 13 13 13 13 12 12 11 11 10 10 10 10 10 10 9 9 8 7 6 6 5 4 4 3 3 3 3 4 4 4 4 4 3 3 2 3 3 4 4 4 4 6 7 8 9 10 11 11 11 11 11 10 10 9 9 9 8 8
8 9 10 10 10 10 10 10 10 11 11 11 12 12 12 11 11 10 9 9 8 7 6 6 6 6 6 5 4 3 3 2 2 2 2 2 2 2 3 3 4 4 4 4 4 5 5 6 6 6 6 6 7 8 9 10 11 11 11 11 11 10 10 9 9 9 8 8 8
8 9 9 9 10 10 10 10 10 10 10 11 11 11 11 10 10 9 8 7 6 6 5 4 4 4 3 2 2 2 1 0 0 1 2 3 4 5 6 6 7 7 7 7 7 7 7 7 7 7 8 8 8 9 10 10 11 11 11 10 10 9 9 8 8 8 8 8 7
8 8 8 9 9 9 9 9 9 9 9 9 10 10 10 9 8 8 7 7 6 6 5 5 4 3 3 2 2 2 2 3 4 5 6 7 8 9 10 10 10 10 9 8 8 8 8 8 8 8 9 9 9 10 10 10 10 10 10 9 8 8 8 7 7 7 7 7 7
9 9 9 9 9 9 9 8 8 7 7 8 8 8 8 8 8 7 7 7 6 6 6 5 5 4 4 4 4 5 6 7 8 9 10 11 13 14 14 14 13 11 10 8 8 8 8 8 9 9 9 9 10 10 9 9 9 8 8 7 7 6 6 6 6 6 6 6 6
9 9 9 9 9 8 7 7 6 6 6 6 7 7 7 7 7 7 7 7 7 7 6 6 6 7 7 8 8 9 10 10 11 12 13 13 14 14 14 14 12 11 9 7 7 7 8 8 8 8 9 9 8 8 7 7 6 6 5 5 5 5 5 5 5 5 5 6 6
9 9 9 8 8 7 6 6 6 6 6 6 7 7 7 8 8 8 8 8 8 8 8 8 9 9 10 10 11 12 12 13 13 13 13 13 12 12 12 11 10 9 7 6 6 7 7 7 7 7 7 6 6 5 5 4 4 4 4 4 4 4 4 4 4 5 6 6 6
9 8 8 8 7 7 7 7 7 7 7 7 8 8 8 9 9 9 9 9 9 9 10 10 10 10 11 11 12 13 13 13 13 12 11 11 10 9 9 9 9 8 7 6 6 6 6 6 6 5 5 4 4 3 3 3 3 3 3 3 3 3 4 4 5 5 5 5 5
9 9 8 8 8 8 8 9 9 9 8 9 9 9 10 10 11 11 11 11 11 11 11 11 11 12 12 12 13 13 13 13 12 11 10 9 8 8 8 9 9 8 6 5 5 5 5 4 4 3 3 2 2 2 2 2 2 2 2 3 3 4 4 4 4 4 3 3 3
9 9 9 10 10 10 10 10 9 9 10 10 10 10 11 12 12 13 13 13 13 13 13 13 13 13 12 13 13 12 12 11 11 10 9 8 8 8 8 8 8 7 6 5 4 4 3 3 2 1 1 1 1 1 1 1 2 2 3 4 4 4 3 3 2 2 2 3 3
11 11 11 11 11 11 11 11 11 11 11 11 12 12 13 13 14 14 15 15 14 14 14 14 14 13 12 12 12 11 11 11 10 9 9 8 7 7 7 7 6 6 5 4 3 3 2 2 1 1 1 1 2 2 3 4 4 4 4 4 4 3 3 2 2 2 3 3 3
12 12 12 12 12 12 12 12 12 12 13 13 13 14 14 15 15 16 16 16 15 15 15 15 14 13 12 11 11 11 11 10 9 9 8 7 6 5 5 4 4 4 3 3 3 2 2 2 3 3 4 4 5 5 5 5 5 5 4 4 3 3 3 3 3 3 3 4 4
13 13 13 13 13 13 13 14 14 14 14 15 15 15 16 16 17 17 17 17 16 16 15 15 14 13 12 11 11 11 11 10 9 7 6 5 5 4 3 3 3 3 3 3 3 3 4 4 5 6 6 6 6 6 5 5 5 4 4 4 4 4 4 3 3 3 4 4 5
14 14 14 15 15 15 15 15 16 16 16 16 17 17 17 18 18 18 17 17 16 16 15 14 13 12 12 11 11 11 10 9 7 6 4 3 3 2 2 2 2 3 3 3 4 5 6 6 6 6 6 6 6 6 5 5 5 4 4 4 4 4 4 4 3 3 4 4 5
Wind_Direction
253 254 254 255 256 256 257 257 257 257 258 258 257 256 256 256 257 259 259 258 256 255 256 257 260 261 262 261 260 260 261 262 262 263 263 264 265 265 263 262 261 260 258 257 259 266 271 270 267 266 267 268 269 270 270 270 270 268 266 264 262 259 257 254 252 254 256 259 261
257 258 258 258 259 259 260 260 261 261 261 261 261 260 258 257 257 258 259 259 259 258 258 258 259 260 261 262 263 263 263 262 263 263 264 266 267 264 260 259 259 258 255 256 261 266 268 266 264 264 265 267 269 270 270 270 270 269 268 267 265 263 260 256 254 253 255 257 260
264 264 264 264 264 264 265 264 264 264 264 264 263 262 261 259 259 260 262 262 261 260 260 259 259 260 261 263 264 265 265 265 266 266 267 268 267 264 260 261 263 262 262 264 268 267 264 263 261 261 264 267 270 272 272 271 270 269 268 267 265 264 261 259 257 255 255 256 258
274 274 274 273 272 271 270 269 268 268 267 266 265 263 262 262 263 264 266 265 263 261 260 259 259 260 261 263 265 266 267 268 269 270 270 270 269 266 264 266 269 272 273 274 270 266 262 259 259 260 263 265 268 270 273 273 271 269 268 266 265 263 262 260 258 257 256 256 257
280 281 281 281 279 278 276 274 272 271 270 269 267 264 262 260 261 264 266 266 265 263 261 260 260 260 261 262 265 267 269 271 272 272 271 271 271 269 269 271 272 274 275 275 270 266 262 260 260 261 262 263 264 266 270 273 273 271 269 267 265 263 261 259 258 257 257 257 256
281 281 282 282 282 282 280 278 276 274 272 271 270 267 264 261 260 260 262 265 266 266 264 263 263 263 263 264 266 269 271 273 274 273 273 272 272 272 272 274 274 275 275 275 273 271 269 266 265 264 263 262 262 263 266 271 273 273 271 268 265 262 260 258 258 257 257 256 255
279 280 281 281 282 282 282 281 278 276 274 272 271 270 268 265 262 259 260 263 265 267 268 268 268 269 270 271 272 273 275 276 276 275 275 274 274 274 274 274 275 275 275 275 276 276 276 275 273 270 267 264 263 263 266 269 272 273 271 268 265 262 260 259 258 258 256 254 252
276 277 278 279 280 281 282 282 281 279 277 275 274 273 272 269 264 260 258 260 262 265 267 269 271 273 276 278 280 280 279 278 276 275 276 276 276 276 276 276 276 276 276 276 276 277 278 279 278 276 272 268 266 268 271 272 273 273 272 269 266 264 261 260 259 258 256 252 249
277 277 277 278 279 280 280 281 282 282 282 279 277 275 273 271 266 261 257 256 257 259 262 266 270 275 280 284 286 286 283 280 277 275 276 277 278 279 279 280 280 280 280 279 279 279 279 278 278 276 273 271 271 272 274 275 274 274 272 270 267 265 263 261 259 257 254 249 244
282 281 281 281 282 282 282 282 283 283 284 283 282 279 276 273 270 264 257 252 252 254 258 263 270 278 284 287 288 287 285 282 279 277 276 278 279 281 282 282 283 283 283 282 281 280 279 277 275 274 273 272 271 271 272 272 273 272 271 269 266 264 262 260 258 255 251 246 242
286 286 286 287 287 287 287 287 286 285 285 285 285 285 283 280 276 270 263 256 253 253 257 265 273 281 285 286 286 284 282 281 280 280 280 280 281 281 281 281 281 281 282 282 281 280 279 277 276 275 273 272 270 269 270 271 272 272 270 267 265 261 259 257 255 252 249 245 241
290 290 290 290 291 292 292 292 291 289 287 286 285 285 285 285 282 278 272 265 260 258 260 267 274 278 280 282 282 280 279 280 280 281 282 282 281 280 279 278 277 277 278 278 279 278 278 277 276 274 272 271 269 269 270 271 272 272 269 266 263 260 257 254 253 250 248 244 241
292 292 292 293 293 294 295 295 295 293 291 288 285 283 282 284 285 285 282 277 270 265 263 266 271 276 279 281 280 280 281 281 282 282 282 281 280 278 276 275 274 274 275 276 277 277 277 276 274 272 270 269 269 270 271 271 270 270 268 264 262 258 255 252 251 249 247 244 241
293 293 293 293 294 294 295 295 296 295 294 291 286 282 279 279 282 285 288 288 283 276 270 268 272 278 282 282 282 282 283 283 284 284 283 281 279 277 274 272 272 273 275 276 277 277 277 275 273 271 270 270 271 272 272 270 267 265 264 262 260 257 254 252 250 249 246 244 241
294 293 293 293 293 292 293 293 293 294 293 292 289 284 278 275 276 279 283 288 290 288 282 278 279 282 286 287 287 286 286 285 284 283 281 280 278 276 274 273 273 274 276 278 278 277 276 274 272 271 272 272 273 273 272 269 265 262 261 261 259 257 255 252 251 249 246 243 241
294 293 292 292 291 290 290 290 290 290 291 291 290 287 281 274 272 273 276 280 283 285 285 284 283 284 286 289 290 290 289 286 284 281 279 278 277 276 275 274 275 276 278 279 278 276 274 273 272 272 273 273 272 271 269 267 264 262 261 260 259 257 254 252 251 248 245 242 239
293 292 292 290 289 288 288 287 287 288 288 289 288 286 280 274 271 270 271 272 274 276 277 278 278 278 280 283 287 290 289 286 283 281 278 277 276 275 276 276 276 276 276 276 275 273 272 272 272 272 272 271 268 265 264 264 264 263 262 259 256 254 252 250 248 246 242 239 237
291 291 291 290 289 288 287 286 286 287 287 287 285 281 276 271 268 268 270 271 272 273 275 277 277 275 275 278 283 286 286 283 282 280 278 276 274 273 273 273 272 272 271 271 271 270 270 271 271 270 269 267 264 261 259 260 262 262 260 256 253 250 248 246 244 241 238 236 235
290 291 291 292 291 290 289 288 287 286 285 285 283 278 272 269 268 269 273 276 278 279 282 286 286 282 280 280 283 284 282 279 277 275 274 272 270 269 268 267 267 266 266 267 267 268 269 269 268 267 266 264 261 259 258 259 259 258 256 252 249 246 244 241 239 237 235 234 234
290 292 294 295 296 296 296 293 290 286 282 281 282 282 279 275 273 273 274 277 278 278 280 284 292 296 294 289 287 285 283 279 275 273 270 269 268 267 266 264 263 263 263 264 265 266 267 267 266 264 263 262 261 261 260 260 259 256 253 250 247 244 242 239 236 234 232 231 229
291 295 298 301 304 306 307 305 300 293 286 282 288 296 297 292 286 281 278 276 276 275 275 276 284 294 299 298 294 290 286 282 278 274 271 269 268 267 266 265 262 260 261 263 265 266 266 265 264 263 263 263 263 263 263 262 260 256 253 249 246 243 240 236 232 228 225 222 218
292 296 303 312 321 327 329 327 322 314 307 304 309 315 314 309 302 294 288 283 280 279 277 275 275 280 286 291 290 288 285 282 279 276 273 272 271 270 269 267 265 265 266 267 268 268 267 266 265 265 265 266 266 266 264 262 259 255 252 247 243 238 233 227 222 217 214 210 208
293 305 324 348 359 359 353 344 335 328 325 323 321 318 316 315 312 308 303 297 292 286 279 274 268 265 267 272 277 280 281 280 279 278 277 278 278 276 274 273 274 276 276 274 273 273 272 271 270 269 268 268 267 265 262 258 254 251 246 241 236 229 221 215 210 206 203 201 200
320 12 39 37 28 18 5 351 336 325 318 314 311 310 312 316 317 316 313 309 303 296 286 277 270 265 265 269 275 279 281 281 280 279 279 280 280 279 280 282 287 288 286 283 281 279 277 276 275 273 271 269 266 262 256 251 246 242 237 231 224 216 209 203 199 197 195 194 195
50 54 46 36 31 24 16 6 353 339 327 318 314 314 316 319 320 320 319 317 314 309 303 295 288 283 281 282 284 284 283 281 279 277 276 276 277 280 285 290 293 292 288 284 281 279 278 278 278 277 273 268 261 252 244 235 229 224 220 214 209 203 198 194 191 190 190 190 193
47 40 31 27 26 23 19 14 7 358 348 339 331 328 327 327 328 328 328 325 322 317 311 306 300 295 291 289 286 283 280 278 277 275 274 275 278 282 285 287 285 282 279 276 274 273 273 274 274 272 266 258 244 230 218 209 204 200 198 196 193 191 189 187 186 187 188 191 195
35 29 25 23 21 19 17 15 13 9 2 355 348 344 342 341 340 340 338 336 331 325 318 312 307 302 297 292 286 281 278 278 278 277 276 276 278 278 276 273 270 266 264 261 260 259 256 245 228 218 215 211 204 198 193 189 186 185 184 183 182 182 182 183 184 186 190 195 200
28 24 21 19 16 15 15 16 15 13 9 3 358 356 355 354 353 351 349 347 343 336 329 322 317 312 308 302 294 286 281 279 276 272 268 266 262 258 251 245 241 237 229 221 208 185 163 152 151 155 163 170 175 178 180 180 179 179 178 177 177 177 179 181 185 189 194 200 205
29 25 21 16 12 12 13 15 16 16 13 9 6 5 5 4 4 3 2 0 358 354 349 341 333 327 322 315 305 296 287 278 270 259 241 219 203 193 187 182 174 166 157 151 146 142 141 141 144 148 154 160 166 170 173 175 175 174 174 175 176 177 181 184 189 194 199 205 211
33 27 23 18 14 12 12 15 18 19 16 13 11 11 11 12 12 14 15 15 17 18 17 13 7 359 352 344 333 326 322 336 99 123 135 139 138 136 135 136 136 135 136 139 141 142 144 145 148 151 155 160 165 168 170 171 172 173 174 176 178 182 186 191 196 201 207 214 220
42 38 32 27 22 19 19 22 22 21 17 16 15 15 17 19 22 25 28 31 34 37 39 40 41 44 44 39 42 58 79 91 99 108 116 120 121 122 123 125 127 130 134 141 146 149 151 151 153 156 159 162 165 168 169 170 172 174 177 181 185 190 195 201 206 212 219 225 231
52 48 43 38 34 32 31 31 28 24 20 19 20 22 25 29 33 38 42 46 50 54 59 64 69 76 80 84 89 94 97 101 107 113 118 122 123 125 128 130 132 134 138 145 150 153 154 156 158 160 161 163 166 168 170 173 176 180 184 190 195 201 207 213 219 226 233 241 249
59 56 51 47 45 44 44 42 38 32 29 30 32 36 39 44 47 52 57 63 69 75 79 84 89 94 97 100 103 105 107 109 115 121 127 131 134 137 139 140 140 140 142 146 149 152 155 158 160 161 163 165 167 171 174 178 184 189 195 202 208 215 221 228 237 248 258 270 280
64 61 58 56 54 54 53 52 49 46 44 46 50 56 60 64 67 71 75 79 84 88 92 95 100 103 105 107 110 112 115 119 125 133 138 142 145 146 145 143 139 138 137 139 143 148 153 156 158 159 162 166 170 175 180 186 195 202 210 218 228 238 249 262 274 285 293 300 304
68 67 64 64 63 61 59 57 55 55 55 59 64 70 75 79 81 83 85 87 91 94 97 99 102 106 109 112 114 118 123 129 136 142 148 151 152 149 143 136 130 127 127 130 137 144 148 152 155 158 163 169 175 182 191 201 212 223 234 247 264 281 296 305 309 312 313 312 306
72 71 70 70 69 68 65 63 63 64 67 71 75 79 83 86 88 88 89 92 95 97 99 100 102 106 110 114 118 123 129 135 141 147 152 155 153 145 135 128 123 120 120 123 129 137 141 144 149 154 164 178 193 206 218 229 244 263 286 306 320 329 333 333 329 324 314 301 285
75 74 74 74 74 74 73 73 74 77 80 83 84 87 89 90 92 92 93 96 98 100 100 101 102 105 109 113 119 125 132 139 144 148 150 150 145 135 127 123 120 117 116 116 118 123 128 134 138 147 167 204 238 262 279 303 327 347 358 1 1 359 356 346 332 312 292 282 276
78 78 78 79 80 81 82 84 86 88 91 92 93 94 95 95 96 96 97 98 100 101 101 102 103 104 107 112 118 124 131 136 140 142 140 135 128 121 117 117 115 113 110 106 104 104 106 103 98 79 51 34 25 21 21 22 26 30 29 24 16 8 358 343 324 308 297 293 294
84 84 84 85 87 89 90 93 94 96 96 97 98 99 99 99 99 99 99 99 100 100 101 102 104 106 109 114 119 125 129 132 132 130 126 120 114 110 107 105 105 104 99 91 85 79 74 66 56 48 44 43 42 42 40 37 37 36 31 22 11 4 357 352 343 332 324 318 316
91 91 91 92 93 95 97 98 99 100 100 101 101 101 102 102 101 101 100 100 99 99 100 102 105 108 113 120 125 128 130 130 129 125 120 115 112 108 100 93 91 90 83 73 64 60 57 57 55 52 49 45 44 42 38 33 30 25 18 12 8 10 12 12 4 351 340 332 328
97 97 97 98 98 99 100 101 102 102 102 103 102 103 103 103 103 102 101 101 100 100 102 105 109 115 122 129 133 135 135 134 133 130 125 119 115 105 90 75 72 72 68 61 57 55 54 53 52 50 44 39 34 28 23 17 15 13 12 11 13 20 27 31 22 5 347 338 333
Height
1479 1480 1480 1480 1480 1480 1480 1481 1481 1481 1481 1481 1481 1481 1481 1481 1481 1481 1481 1481 1481 1481 1482 1482 1482 1482 1482 1481 1481 1481 1481 1481 1481 1481 1481 1481 1481 1481 1481 1480 1480 1480 1479 1479 1479 1479 1480 1480 1481 1482 1482 1482 1482 1482 1482 1482 1483 1483 1483 1483 1484 1484 1485 1487 1488 1490 1491 1492 1493
1478 1478 1478 1478 1479 1479 1479 1479 1479 1479 1479 1480 1480 1480 1480 1480 1480 1480 1480 1480 1479 1479 1480 1480 1480 1480 1480 1479 1479 1478 1479 1479 1479 1479 1479 1479 1479 1479 1477 1477 1477 1477 1477 1477 1477 1477 1478 1478 1479 1480 1480 1480 1480 1480 1480 1480 1481 1481 1481 1481 1481 1482 1483 1484 1485 1486 1488 1490 1491
1477 1477 1477 1477 1477 1477 1477 1478 1478 1478 1478 1478 1478 1478 1478 1478 1478 1478 1477 1477 1477 1478 1477 1477 1478 1478 1477 1477 1476 1476 1476 1476 1477 1477 1477 1477 1477 1476 1476 1476 1476 1475 1475 1475 1475 1476 1476 1476 1477 1478 1478 1478 1478 1478 1478 1478 1479 1479 1479 1479 1479 1480 1480 1481 1482 1484 1485 1486 1488
1476 1476 1476 1476 1476 1476 1476 1476 1476 1476 1476 1476 1476 1476 1476 1476 1476 1476 1476 1476 1476 1476 1476 1476 1476 1476 1475 1475 1475 1474 1474 1475 1475 1475 1475 1475 1475 1475 1474 1475 1474 1474 1474 1474 1474 1474 1474 1475 1475 1476 1476 1476 1476 1476 1476 1476 1476 1477 1477 1477 1477 1478 1478 1479 1480 1481 1482 1483 1484
1475 1475 1475 1475 1475 1475 1475 1475 1475 1475 1475 1475 1475 1475 1475 1475 1475 1474 1474 1474 1473 1473 1473 1474 1473 1473 1473 1473 1473 1472 1472 1473 1473 1473 1473 1473 1474 1474 1473 1473 1473 1473 1473 1473 1472 1472 1472 1473 1473 1474 1474 1474 1475 1475 1475 1475 1475 1475 1475 1475 1476 1476 1476 1477 1478 1479 1480 1481 1481
1474 1474 1474 1474 1474 1474 1474 1474 1474 1474 1473 1473 1473 1473 1473 1473 1473 1473 1472 1472 1472 1472 1471 1471 1471 1471 1471 1471 1471 1471 1471 1471 1471 1471 1471 1471 1472 1472 1472 1472 1471 1471 1471 1471 1471 1471 1471 1471 1471 1471 1472 1473 1473 1473 1474 1473 1473 1473 1473 1473 1474 1475 1475 1475 1476 1476 1477 1478 1478
1473 1473 1473 1473 1473 1473 1473 1472 1472 1472 1472 1472 1472 1471 1471 1471 1471 1471 1471 1471 1471 1470 1469 1469 1469 1468 1468 1469 1469 1469 1469 1469 1469 1469 1469 1470 1470 1470 1471 1471 1470 1470 1470 1470 1470 1470 1469 1469 1470 1470 1470 1471 1471 1471 1471 1471 1471 1471 1471 1472 1472 1473 1473 1473 1474 1474 1475 1476 1476
1472 1472 1472 1472 1472 1472 1471 1471 1471 1471 1471 1471 1470 1470 1470 1470 1470 1470 1470 1470 1470 1469 1467 1467 1467 1467 1467 1467 1467 1467 1467 1467 1467 1467 1467 1468 1468 1469 1469 1469 1469 1469 1469 1469 1469 1468 1468 1468 1468 1468 1468 1469 1469 1469 1470 1470 1470 1469 1470 1470 1470 1471 1471 1471 1472 1473 1473 1474 1474
1471 1471 1471 1471 1471 1470 1470 1470 1470 1470 1470 1469 1469 1469 1468 1468 1468 1468 1468 1468 1468 1467 1466 1465 1465 1465 1465 1465 1465 1465 1466 1466 1466 1466 1466 1466 1467 1467 1468 1468 1468 1467 1467 1467 1467 1467 1467 1467 1467 1467 1467 1467 1467 1467 1468 1468 1468 1468 1468 1469 1469 1469 1470 1470 1471 1471 1472 1472 1472
1470 1469 1469 1469 1469 1469 1469 1469 1469 1468 1468 1468 1468 1467 1467 1466 1466 1466 1466 1466 1466 1465 1464 1464 1463 1463 1463 1464 1464 1464 1464 1464 1464 1464 1464 1465 1466 1466 1466 1466 1466 1466 1466 1466 1466 1466 1466 1465 1465 1465 1465 1466 1466 1466 1466 1467 1467 1467 1467 1467 1467 1468 1468 1469 1469 1470 1470 1470 1471
1468 1468 1468 1468 1467 1467 1467 1467 1467 1467 1467 1466 1466 1466 1466 1465 1464 1464 1463 1463 1463 1462 1462 1462 1462 1462 1462 1462 1462 1462 1462 1462 1463 1463 1464 1464 1465 1465 1465 1465 1465 1465 1465 1465 1464 1464 1464 1464 1463 1464 1464 1464 1464 1465 1465 1466 1466 1466 1466 1466 1466 1467 1467 1467 1468 1468 1468 1469 1469
1467 1466 1466 1466 1466 1466 1466 1466 1466 1465 1465 1465 1465 1465 1464 1464 1463 1462 1462 1461 1461 1460 1460 1460 1461 1461 1461 1461 1461 1461 1461 1461 1462 1463 1463 1464 1464 1464 1464 1464 1464 1463 1463 1463 1463 1462 1462 1462 1462 1462 1462 1463 1463 1464 1464 1465 1465 1465 1465 1465 1465 1466 1466 1466 1466 1467 1467 1468 1468
1466 1465 1465 1465 1465 1465 1464 1464 1464 1464 1464 1463 1463 1463 1463 1463 1462 1461 1461 1460 1459 1459 1459 1459 1459 1459 1459 1460 1460 1460 1460 1461 1461 1462 1462 1463 1463 1463 1463 1462 1462 1462 1462 1461 1461 1461 1461 1461 1461 1461 1461 1461 1462 1463 1463 1464 1464 1464 1463 1464 1464 1465 1465 1465 1466 1466 1466 1466 1467
1465 1464 1464 1464 1463 1463 1463 1463 1462 1462 1462 1462 1461 1461 1461 1461 1461 1461 1460 1459 1458 1458 1457 1457 1458 1458 1458 1458 1459 1459 1460 1460 1461 1461 1461 1461 1461 1461 1461 1461 1461 1461 1460 1460 1460 1459 1459 1459 1459 1460 1460 1461 1461 1461 1461 1462 1462 1462 1462 1462 1463 1464 1464 1464 1464 1465 1465 1465 1466
1464 1463 1463 1463 1462 1462 1462 1461 1461 1461 1460 1460 1460 1460 1460 1460 1460 1459 1459 1458 1458 1457 1457 1456 1456 1456 1457 1457 1458 1458 1459 1459 1460 1460 1460 1460 1460 1460 1459 1459 1459 1459 1458 1458 1458 1458 1458 1458 1458 1459 1459 1459 1459 1460 1460 1460 1460 1461 1461 1461 1462 1463 1463 1463 1463 1464 1464 1465 1465
1462 1462 1462 1461 1461 1461 1461 1460 1460 1459 1459 1458 1458 1458 1458 1458 1458 1458 1458 1457 1457 1457 1456 1456 1455 1455 1455 1456 1456 1457 1458 1458 1458 1458 1459 1459 1458 1458 1458 1457 1457 1457 1457 1456 1456 1456 1456 1457 1457 1457 1458 1458 1458 1458 1459 1459 1459 1459 1460 1461 1461 1462 1462 1462 1462 1463 1464 1465 1465
1461 1461 1461 1460 1460 1459 1459 1458 1458 1458 1457 1457 1457 1456 1456 1456 1456 1456 1456 1456 1456 1456 1456 1455 1454 1454 1454 1454 1456 1456 1457 1457 1457 1457 1457 1457 1457 1456 1456 1456 1456 1456 1455 1455 1455 1455 1455 1456 1456 1456 1456 1456 1457 1457 1457 1458 1458 1459 1460 1460 1461 1461 1461 1461 1462 1463 1464 1465 1466
1460 1460 1459 1459 1458 1458 1457 1457 1456 1456 1456 1456 1456 1456 1455 1455 1455 1455 1455 1455 1455 1455 1454 1454 1454 1453 1452 1453 1455 1456 1456 1456 1456 1456 1456 1456 1456 1455 1455 1455 1454 1454 1454 1454 1454 1454 1454 1454 1455 1455 1455 1455 1456 1456 1456 1457 1457 1458 1459 1460 1460 1460 1461 1461 1462 1463 1464 1465 1466
1458 1458 1457 1457 1456 1456 1456 1455 1455 1455 1455 1455 1455 1454 1454 1454 1454 1454 1454 1454 1454 1454 1453 1453 1452 1452 1452 1452 1454 1455 1455 1455 1455 1455 1455 1455 1455 1454 1454 1454 1453 1453 1452 1452 1452 1453 1453 1453 1454 1454 1454 1454 1455 1455 1456 1456 1457 1457 1458 1459 1459 1460 1461 1461 1462 1464 1465 1466 1467
1457 1456 1456 1455 1455 1455 1454 1454 1454 1454 1454 1453 1453 1453 1453 1453 1453 1453 1453 1453 1453 1452 1452 1451 1451 1451 1451 1451 1452 1453 1454 1454 1454 1453 1453 1453 1453 1454 1453 1453 1453 1452 1451 1451 1451 1452 1452 1452 1453 1453 1453 1454 1454 1455 1455 1456 1456 1457 1457 1458 1459 1460 1461 1462 1463 1464 1465 1466 1467
1455 1455 1454 1454 1454 1454 1453 1453 1453 1453 1453 1453 1453 1453 1452 1452 1452 1452 1451 1451 1451 1451 1451 1450 1450 1450 1450 1451 1451 1452 1452 1453 1453 1453 1452 1453 1453 1453 1453 1454 1453 1453 1452 1451 1451 1451 1451 1452 1452 1452 1453 1453 1454 1455 1455 1456 1456 1457 1457 1458 1459 1460 1461 1462 1463 1464 1465 1466 1466
1454 1454 1453 1453 1453 1453 1453 1453 1452 1452 1452 1452 1452 1451 1451 1451 1451 1451 1451 1451 1450 1450 1450 1449 1449 1450 1451 1451 1451 1451 1452 1452 1452 1452 1452 1452 1453 1453 1454 1455 1455 1455 1454 1453 1452 1451 1451 1452 1452 1452 1453 1454 1454 1455 1455 1456 1456 1457 1458 1459 1460 1461 1461 1462 1463 1464 1464 1465 1466
1453 1453 1453 1453 1452 1452 1452 1452 1452 1452 1451 1451 1451 1451 1451 1451 1451 1450 1450 1450 1450 1450 1450 1449 1449 1450 1451 1451 1452 1452 1451 1451 1451 1452 1452 1452 1453 1454 1455 1456 1456 1456 1456 1455 1453 1452 1452 1452 1452 1453 1453 1454 1454 1455 1455 1456 1456 1457 1458 1459 1460 1461 1461 1462 1463 1463 1464 1464 1465
1453 1453 1452 1452 1452 1452 1452 1452 1451 1451 1451 1451 1451 1451 1451 1450 1450 1450 1450 1450 1450 1450 1449 1449 1449 1450 1450 1451 1451 1451 1451 1451 1452 1452 1453 1453 1453 1454 1455 1456 1457 1457 1456 1456 1454 1453 1452 1452 1453 1453 1453 1454 1454 1455 1455 1456 1456 1457 1458 1459 1459 1460 1461 1462 1462 1463 1464 1464 1465
1452 1452 1452 1452 1451 1451 1451 1451 1451 1451 1451 1451 1451 1451 1450 1450 1450 1450 1449 1449 1449 1449 1449 1449 1449 1449 1449 1450 1450 1451 1451 1451 1452 1453 1453 1453 1453 1454 1455 1455 1456 1456 1456 1456 1455 1454 1453 1453 1453 1453 1453 1454 1454 1455 1456 1456 1457 1457 1458 1459 1460 1460 1461 1462 1462 1463 1464 1465 1465
1452 1452 1451 1451 1451 1451 1451 1451 1451 1450 1450 1450 1450 1450 1450 1449 1449 1449 1448 1448 1448 1448 1448 1448 1448 1449 1449 1449 1450 1450 1451 1451 1452 1452 1452 1452 1452 1453 1453 1454 1454 1454 1455 1455 1455 1454 1453 1453 1453 1453 1454 1454 1455 1455 1456 1456 1457 1458 1458 1459 1460 1461 1461 1462 1463 1463 1464 1465 1466
1451 1451 1451 1451 1451 1451 1451 1451 1450 1450 1450 1450 1450 1450 1449 1449 1448 1448 1448 1447 1447 1447 1447 1448 1448 1449 1449 1450 1450 1450 1451 1451 1451 1451 1451 1451 1451 1451 1452 1452 1453 1453 1454 1454 1454 1454 1454 1453 1454 1454 1454 1455 1455 1456 1456 1457 1457 1458 1459 1460 1461 1461 1462 1463 1463 1464 1464 1465 1466
1451 1451 1451 1451 1451 1451 1451 1451 1450 1450 1450 1450 1450 1449 1449 1448 1448 1447 1447 1447 1447 1447 1447 1448 1448 1449 1449 1450 1450 1450 1451 1451 1451 1451 1451 1451 1451 1451 1451 1451 1452 1452 1453 1453 1454 1454 1454 1454 1454 1454 1455 1455 1456 1456 1457 1457 1458 1459 1460 1460 1461 1461 1462 1463 1463 1464 1464 1465 1465
1451 1451 1451 1451 1451 1451 1451 1451 1450 1450 1450 1450 1449 1449 1448 1448 1448 1447 1447 1447 1447 1447 1447 1448 1448 1449 1449 1450 1450 1450 1451 1451 1451 1451 1451 1450 1450 1451 1451 1451 1452 1452 1452 1453 1454 1454 1454 1454 1455 1455 1456 1456 1456 1457 1458 1458 1459 1460 1460 1461 1461 1462 1462 1462 1463 1463 1464 1464 1464
1451 1451 1451 1451 1451 1451 1451 1450 1450 1450 1450 1449 1449 1449 1448 1448 1448 1448 1448 1447 1447 1448 1448 1448 1448 1449 1449 1450 1450 1451 1451 1451 1451 1451 1451 1451 1451 1451 1451 1452 1452 1453 1453 1454 1454 1454 1455 1455 1455 1456 1456 1456 1457 1458 1458 1459 1460 1460 1461 1461 1461 1461 1462 1462 1462 1463 1463 1463 1464
1451 1451 1451 1451 1451 1451 1450 1450 1450 1450 1450 1449 1449 1449 1448 1448 1448 1448 1448 1448 1448 1448 1448 1448 1449 1449 1450 1450 1451 1451 1451 1451 1452 1452 1452 1452 1452 1452 1453 1453 1454 1454 1454 1455 1455 1455 1456 1456 1456 1456 1456 1457 1457 1458 1459 1459 1460 1460 1461 1461 1461 1461 1462 1462 1462 1462 1463 1463 1463
1451 1451 1451 1451 1451 1451 1450 1450 1450 1450 1450 1450 1449 1449 1449 1449 1449 1449 1449 1449 1449 1449 1449 1449 1449 1450 1450 1451 1451 1451 1452 1452 1453 1453 1453 1454 1454 1454 1454 1455 1455 1455 1456 1456 1456 1456 1456 1456 1456 1457 1457 1457 1458 1458 1459 1460 1460 1461 1461 1461 1461 1461 1462 1462 1462 1462 1463 1463 1463
1451 1451 1451 1451 1451 1450 1450 1450 1450 1450 1450 1450 1449 1449 1449 1449 1449 1449 1449 1449 1449 1449 1450 1450 1450 1450 1451 1451 1451 1452 1453 1453 1454 1455 1455 1455 1455 1455 1455 1456 1456 1456 1456 1457 1457 1457 1457 1457 1457 1458 1458 1458 1459 1459 1460 1460 1461 1461 1461 1461 1461 1462 1462 1462 1462 1462 1462 1462 1462
1451 1451 1451 1451 1451 1450 1450 1450 1450 1450 1450 1450 1450 1449 1449 1449 1449 1449 1450 1450 1450 1450 1450 1451 1451 1451 1451 1452 1452 1453 1454 1455 1455 1456 1456 1456 1456 1456 1456 1456 1457 1457 1458 1458 1458 1458 1458 1458 1458 1458 1459 1459 1459 1460 1460 1461 1461 1461 1461 1461 1461 1462 1462 1462 1462 1462 1462 1462 1462
1451 1451 1451 1451 1451 1451 1450 1450 1450 1450 1450 1450 1450 1450 1450 1450 1450 1450 1450 1450 1451 1451 1451 1451 1452 1452 1452 1453 1453 1454 1455 1456 1456 1457 1457 1457 1457 1458 1458 1458 1458 1459 1459 1459 1459 1459 1459 1459 1459 1459 1459 1460 1460 1460 1461 1461 1461 1461 1461 1461 1461 1461 1461 1461 1461 1461 1461 1461 1462
1451 1451 1451 1451 1451 1451 1451 1451 1451 1451 1451 1451 1451 1451 1451 1451 1451 1451 1451 1451 1451 1451 1452 1452 1453 1453 1453 1454 1455 1455 1456 1457 1457 1458 1458 1459 1459 1459 1459 1460 1460 1460 1460 1460 1460 1460 1460 1460 1460 1460 1460 1460 1460 1461 1461 1461 1461 1461 1461 1461 1461 1461 1461 1461 1461 1461 1461 1461 1462
1452 1451 1451 1451 1451 1451 1451 1451 1451 1451 1451 1451 1451 1451 1451 1451 1451 1451 1452 1452 1452 1453 1453 1454 1454 1454 1455 1455 1456 1456 1457 1458 1459 1459 1460 1460 1461 1461 1461 1461 1461 1461 1461 1461 1460 1460 1460 1460 1460 1460 1460 1461 1461 1461 1461 1461 1461 1461 1461 1461 1461 1461 1461 1461 1461 1461 1461 1461 1461
1452 1452 1452 1452 1452 1452 1452 1452 1452 1452 1452 1452 1452 1452 1452 1452 1452 1453 1453 1453 1454 1454 1454 1455 1455 1456 1456 1457 1457 1458 1459 1459 1460 1461 1461 1461 1462 1462 1462 1461 1461 1461 1461 1461 1461 1461 1461 1461 1461 1461 1461 1461 1461 1461 1461 1461 1461 1461 1461 1461 1461 1461 1461 1461 1461 1461 1461 1461 1461
1453 1453 1453 1453 1453 1453 1453 1453 1453 1453 1453 1453 1453 1453 1453 1454 1454 1454 1454 1455 1455 1455 1456 1456 1456 1457 1458 1458 1459 1459 1460 1461 1461 1462 1462 1462 1463 1463 1463 1462 1462 1462 1461 1461 1461 1461 1461 1461 1461 1461 1461 1461 1461 1462 1462 1462 1461 1461 1461 1461 1461 1461 1461 1461 1461 1461 1460 1460 1460
1454 1454 1454 1454 1454 1454 1454 1454 1454 1454 1454 1454 1454 1454 1455 1455 1455 1456 1456 1456 1456 1456 1457 1457 1458 1459 1459 1460 1461 1461 1462 1462 1463 1463 1463 1463 1463 1463 1463 1463 1463 1462 1462 1462 1462 1462 1462 1462 1462 1462 1462 1462 1462 1462 1462 1462 1462 1461 1461 1461 1461 1461 1461 1461 1460 1460 1460 1460 1460
1454 1455 1455 1455 1455 1455 1455 1455 1455 1455 1455 1455 1456 1456 1456 1456 1456 1457 1457 1457 1457 1458 1458 1459 1460 1460 1461 1462 1462 1463 1463 1463 1464 1464 1464 1464 1464 1464 1464 1464 1464 1463 1463 1463 1463 1463 1463 1463 1463 1463 1463 1463 1463 1462 1462 1462 1462 1461 1461 1461 1461 1461 1461 1461 1460 1460 1460 1460 1459